Location: Casco Volunteer Fire Department
(44.5576°N, 87.6146°W)
Time: 05:44:38
(UTC+00:00)

Cosmos 1340 Rocket - Visible Passes

Search period start: 19 April 2026 00:00
Search period end: 29 April 2026 00:00
Orbit: 483 x 515 km, 81.2° (Epoch: 18 April)

Date Brightness Start Highest point End Pass type
(mag) Time Alt. Az. Time Alt. Az. Time Alt. Az.
19 Apr 5.0 10:14:05 10° N 10:17:24 29° ENE 10:20:43 10° SE visible
20 Apr 5.5 09:53:59 10° NNE 09:56:57 22° ENE 09:59:56 10° ESE visible
21 Apr 5.9 09:34:00 10° NNE 09:36:29 17° ENE 09:38:57 10° ESE visible
22 Apr 6.1 09:14:17 10° NE 09:15:58 13° ENE 09:17:39 10° E visible
24 Apr 2.7 10:07:16 10° N 10:11:02 83° E 10:14:49 10° SSE visible
25 Apr 3.3 09:46:54 10° N 09:50:38 58° ENE 09:54:21 10° SSE visible
26 Apr 4.0 09:26:35 10° N 09:30:11 41° ENE 09:33:47 10° SSE visible
27 Apr 4.7 09:06:21 10° N 09:09:43 30° ENE 09:13:06 10° SE visible
28 Apr 5.2 08:46:11 10° NNE 08:49:14 23° ENE 08:52:16 10° SE visible
